Temperature
21 22 22 23 23 23 22 20 20 20 21 21 21 21 22 23 24 23 23 23 23 23 23 22 22 21 21 21 20 19 19 18 18 17 16 16 16 15 15 14 14 13 13 12
22 23 23 23 23 23 23 22 22 21 21 21 21 22 23 23 23 23 23 24 24 23 23 22 22 22 21 21 20 19 19 18 18 17 17 16 16 15 15 14 14 13 13 13
20 21 22 21 22 22 22 21 21 20 20 20 20 20 22 23 24 24 24 24 24 24 23 23 22 22 21 21 20 19 19 18 18 17 17 16 16 15 15 15 14 14 13 13
18 20 21 20 21 22 21 20 19 20 19 19 20 22 23 24 24 24 24 24 24 24 23 23 22 22 21 21 20 19 19 18 18 17 17 16 16 16 15 15 15 14 14 13
17 18 20 21 21 20 20 18 18 18 19 20 21 21 21 23 23 24 24 24 24 24 24 23 22 22 21 20 20 19 19 18 18 17 17 16 16 16 15 15 15 14 14 14
17 19 19 20 20 20 19 18 17 17 17 18 19 18 19 21 23 24 24 24 24 24 23 23 22 21 21 20 20 19 19 19 18 17 17 17 16 16 15 15 15 14 14 14
16 17 18 19 19 19 19 18 17 17 18 18 17 17 19 21 22 22 23 23 23 23 23 22 22 21 20 20 20 19 19 18 17 17 17 16 16 16 15 15 14 14 14 14
15 16 17 18 18 17 16 17 17 18 19 19 18 19 19 20 21 21 22 22 22 22 22 21 21 20 20 20 20 19 18 18 17 17 16 16 16 15 15 15 14 14 14 14
15 15 16 16 17 18 18 17 18 18 19 19 18 18 19 19 20 20 21 21 21 21 20 20 20 19 19 19 18 18 17 17 16 16 16 15 15 15 14 14 14 14 13 13
14 15 15 16 17 18 18 18 18 18 18 18 18 17 18 18 18 19 19 19 19 19 19 19 18 18 18 18 17 17 17 16 16 15 15 15 14 14 14 14 13 13 13 13
15 15 15 16 17 18 18 18 17 17 17 17 17 17 17 17 17 18 18 18 18 18 18 17 17 17 17 17 16 16 16 15 15 15 14 14 14 14 13 13 13 13 13 13
15 15 15 16 18 18 17 17 17 17 17 17 17 16 16 16 16 16 16 16 17 16 16 16 16 16 15 15 15 15 14 14 14 14 13 13 13 13 13 13 13 13 13 12
18 18 18 18 18 17 17 17 17 17 16 16 16 16 16 15 15 15 15 15 15 15 15 15 14 14 14 14 14 14 13 13 13 13 13 12 12 12 12 12 12 12 12 12
18 18 17 17 17 17 16 16 16 16 16 15 15 15 15 15 15 15 14 14 14 14 14 13 13 13 13 13 13 13 12 12 12 12 12 11 11 11 11 11 12 12 12 12
17 17 17 16 16 16 16 16 16 15 15 15 15 15 15 14 14 14 13 13 13 13 13 12 12 12 12 12 12 12 11 11 11 11 11 11 11 11 11 11 11 11 11 12
16 16 16 16 16 16 15 15 15 15 15 14 14 14 14 13 13 13 13 12 12 12 12 12 11 11 11 11 11 11 11 10 10 10 10 10 10 10 10 10 10 11 11 11
15 15 15 15 15 15 15 15 14 14 14 14 14 13 13 13 13 12 12 12 12 11 11 11 11 11 11 11 10 10 10 10 10 10 10 10 9 9 10 10 10 10 10 11
15 15 15 15 15 14 14 14 14 14 13 13 13 13 12 12 12 12 11 11 11 11 11 11 11 11 10 10 10 10 9 9 9 9 9 9 9 9 9 9 9 9 10 10
14 14 14 14 14 14 14 13 13 13 13 13 12 12 12 12 11 11 11 11 11 11 11 11 10 10 10 10 10 9 9 9 9 9 8 8 8 8 8 8 9 9 9 9
14 14 14 14 13 13 13 13 13 12 12 12 12 12 12 11 11 11 11 11 11 11 10 10 10 10 10 10 9 9 9 8 8 8 8 8 8 8 8 8 8 8 8 9
13 13 13 13 13 13 12 12 12 12 12 12 12 12 11 11 11 11 11 11 11 10 10 10 10 10 10 9 9 9 8 8 8 7 7 7 7 7 7 7 7 8 8 8
13 13 12 12 12 12 12 12 12 12 12 11 11 11 11 11 11 11 11 11 10 10 10 10 10 9 9 9 8 8 8 7 7 7 7 7 7 7 7 7 7 7 7 7
12 12 12 12 12 11 11 11 11 11 11 11 11 11 11 11 11 11 10 10 10 10 10 9 9 9 8 8 8 7 7 7 6 6 6 6 6 6 6 6 6 6 7 7
12 11 11 11 11 11 11 11 11 11 11 11 11 11 11 11 10 10 10 10 9 9 9 9 8 8 8 7 7 7 6 6 6 6 5 5 5 5 5 5 5 6 6 6
11 11 11 11 11 11 11 11 11 11 11 11 10 10 10 10 10 9 9 9 9 8 8 8 7 7 7 6 6 6 5 5 5 5 4 4 4 4 4 5 5 5 5 5
11 11 11 11 10 10 10 10 10 10 10 10 10 9 9 9 9 9 8 8 8 7 7 7 6 6 6 5 5 5 5 4 4 4 4 3 3 3 4 4 4 4 4 5
10 10 10 10 10 10 10 9 9 9 9 9 9 8 8 8 8 8 7 7 7 6 6 6 5 5 5 4 4 4 4 3 3 3 3 3 3 3 3 3 3 4 4 4
Wind_Speed
6 6 4 5 6 4 4 6 7 8 7 9 10 9 8 8 9 10 11 12 14 14 13 12 12 12 12 11 11 10 10 10 10 9 9 8 8 8 7 7 7 7 7 7
4 5 5 6 7 7 6 3 5 4 5 6 4 3 4 6 9 11 12 13 14 13 13 13 13 13 11 11 11 10 11 11 10 9 8 8 8 8 7 7 7 6 7 7
4 6 4 5 5 4 1 3 2 4 4 1 3 3 6 7 9 11 12 12 13 14 14 14 14 13 13 12 10 10 11 10 10 9 9 9 9 8 8 8 7 7 7 7
1 3 4 7 3 2 5 6 4 1 1 2 3 2 3 4 7 9 10 11 13 13 12 11 11 11 11 10 10 11 10 10 9 9 9 9 8 8 8 7 7 7 8 8
3 3 6 5 2 1 3 3 7 4 4 4 4 6 5 2 2 6 8 9 11 13 12 11 11 11 10 9 9 9 10 10 10 10 9 9 9 9 8 6 7 7 7 8
3 3 5 6 4 4 4 2 6 6 6 6 6 4 3 6 3 1 2 4 6 7 7 9 9 10 10 10 9 10 10 10 9 9 9 10 10 9 7 7 8 8 8 9
2 3 6 4 4 3 4 4 2 2 4 5 3 1 4 6 5 3 1 1 3 5 7 8 8 9 10 9 10 10 8 7 7 8 9 9 8 7 7 7 7 8 9 9
3 2 6 4 2 2 4 2 1 0 3 4 1 2 4 5 6 6 5 4 3 4 3 3 6 9 8 9 9 6 6 6 7 7 6 6 6 7 6 7 8 8 8 9
7 6 4 3 3 2 3 2 2 2 3 4 3 4 5 6 7 7 6 5 3 3 3 3 4 6 7 6 4 4 4 5 5 5 5 5 6 7 6 6 6 8 7 9
2 2 2 2 1 3 3 3 2 3 5 6 6 5 6 6 7 8 8 7 5 5 4 2 1 2 3 2 3 4 3 4 3 4 5 5 5 6 6 7 7 8 8 9
3 3 2 1 2 3 4 5 6 6 7 7 9 8 7 6 7 7 6 6 6 6 4 3 2 1 1 1 2 2 2 2 3 4 5 5 6 7 8 8 10 10 10 9
7 9 7 6 6 6 6 6 7 9 10 8 9 8 8 7 6 6 7 7 7 7 6 5 4 3 3 1 2 2 1 3 3 4 4 5 6 8 12 14 17 18 18 15
7 7 5 4 5 7 8 9 9 10 10 9 8 8 8 7 7 7 8 8 7 7 6 6 6 6 5 4 2 1 1 3 3 4 5 5 6 7 10 11 14 16 17 19
12 10 8 6 7 9 11 11 11 11 9 8 7 7 7 7 7 8 7 5 5 6 6 6 6 6 6 5 3 3 3 5 5 5 5 6 7 7 7 8 9 9 11 15
9 10 10 10 11 11 10 11 11 9 8 8 7 7 7 7 6 5 4 5 6 6 5 5 5 5 5 5 5 5 4 4 5 6 6 6 7 7 8 9 9 9 9 9
11 13 14 13 12 10 10 11 10 8 7 7 7 6 5 4 4 3 4 4 4 3 2 3 3 4 4 4 4 4 5 9 8 6 7 7 7 7 8 8 8 8 8 8
11 9 11 12 10 10 9 9 8 6 6 5 4 4 4 4 4 4 4 3 1 1 1 1 3 4 3 3 3 3 5 7 11 9 7 8 7 8 8 8 8 8 8 8
10 8 8 9 9 9 8 7 7 6 5 4 3 3 3 2 1 2 3 3 3 4 4 4 4 3 3 2 3 4 5 6 7 7 8 7 8 7 7 7 8 9 8 8
10 10 9 8 8 7 6 6 5 4 3 3 2 2 1 1 2 3 3 3 4 5 7 6 5 3 3 4 4 4 5 7 7 7 8 9 9 7 6 7 7 8 7 6
9 8 8 8 7 7 5 4 3 3 3 3 2 2 2 3 4 4 4 4 5 6 6 6 4 3 4 5 6 4 6 7 7 7 7 7 7 7 6 7 7 7 7 6
8 8 8 7 5 5 3 3 2 3 4 4 3 3 4 5 6 5 4 5 7 7 5 6 4 4 4 5 6 4 5 6 6 6 7 7 7 7 7 7 8 7 7 6
6 5 5 4 4 3 3 3 3 5 5 5 5 5 5 6 7 6 5 5 6 7 4 3 4 5 5 5 4 4 5 5 6 6 6 6 7 7 7 8 8 7 7 5
2 2 3 2 2 3 4 5 6 6 6 6 6 6 6 6 4 4 5 5 4 5 3 3 5 6 7 4 3 4 5 5 6 6 6 6 7 7 7 8 8 7 6 4
2 3 3 4 3 4 6 7 7 6 6 6 6 6 4 3 3 3 3 4 5 4 2 4 6 6 5 3 3 3 4 5 6 6 6 6 6 6 7 7 8 7 5 5
4 4 5 5 5 5 6 6 6 6 6 5 5 5 3 1 1 2 2 3 5 4 3 4 6 6 4 3 3 3 4 4 5 6 6 7 7 7 7 7 6 6 5 5
4 4 4 4 3 3 3 2 3 3 3 3 4 4 4 3 2 2 3 4 5 5 4 3 3 4 3 4 4 4 4 5 5 6 7 7 7 7 6 7 8 7 6 6
5 4 3 4 4 3 2 2 2 3 2 1 2 3 3 3 3 3 4 4 4 3 3 3 3 3 3 4 4 5 5 5 5 6 6 6 6 6 7 7 6 6 6 6
Wind_Direction
233 238 220 247 272 262 218 204 199 234 228 234 222 212 203 190 177 167 169 171 175 177 178 176 176 178 180 183 181 175 174 183 194 198 198 199 203 209 215 218 223 223 226 234
298 283 281 279 279 282 285 257 234 237 250 259 210 170 167 164 161 165 172 177 179 176 176 179 181 182 182 184 181 173 178 190 194 192 195 200 206 211 215 222 226 223 228 234
277 299 346 294 265 249 299 341 167 181 232 292 85 158 183 182 174 177 178 178 179 181 183 184 184 182 185 186 177 175 183 189 190 191 198 206 209 209 216 220 220 225 234 236
252 10 262 251 289 109 98 37 18 134 215 150 150 200 172 166 173 186 183 181 186 188 189 189 185 182 180 173 173 180 187 194 195 195 204 208 207 212 218 217 219 228 235 238
154 211 265 287 328 17 113 28 357 18 28 17 49 45 19 340 170 180 185 188 191 192 188 183 184 181 168 171 175 183 195 201 202 199 204 206 211 219 220 218 225 230 236 238
151 182 231 258 308 323 104 54 347 16 26 12 50 66 300 308 316 111 149 177 188 183 170 177 186 169 166 176 180 197 204 206 203 200 204 210 217 220 219 219 228 233 241 240
166 216 254 277 306 21 122 218 261 40 58 46 62 185 280 325 351 3 29 136 152 154 169 188 176 162 172 179 199 209 202 200 202 205 209 214 218 222 223 228 236 241 248 250
148 198 252 296 355 144 199 202 200 114 92 92 88 23 20 19 16 8 18 37 86 133 163 162 155 162 176 198 210 196 187 197 208 212 216 219 221 231 232 231 241 249 253 262
182 210 248 254 196 177 144 173 214 169 132 121 91 48 42 35 25 25 36 39 62 105 104 92 134 157 184 215 189 170 184 207 218 220 223 221 220 232 240 236 240 252 252 258
163 237 245 271 105 116 145 178 169 136 117 105 96 75 59 46 34 34 37 40 48 67 73 60 104 166 197 188 156 163 195 221 227 227 240 243 239 236 239 243 246 250 252 255
163 181 134 278 212 154 126 113 94 88 92 96 94 77 69 58 47 41 40 44 53 61 59 36 39 32 21 84 137 165 212 237 247 247 250 259 259 252 249 247 244 244 250 247
195 192 170 198 203 163 130 124 114 100 84 76 82 81 68 55 45 48 45 43 45 43 41 34 37 24 1 11 115 139 253 269 263 263 267 269 275 283 267 260 262 251 248 248
152 152 141 144 139 128 116 110 103 94 89 79 70 73 71 60 50 49 44 42 43 41 38 37 36 19 357 354 33 58 283 282 281 277 276 278 279 281 289 290 278 267 259 256
125 121 109 112 117 116 112 106 95 85 80 79 73 66 64 59 52 49 44 39 44 46 43 42 39 17 354 359 10 348 321 304 298 286 280 277 277 279 279 284 292 290 276 264
104 109 116 109 98 98 99 95 87 78 72 62 57 56 57 58 52 41 33 36 44 41 34 35 30 358 344 2 9 350 331 312 299 290 285 283 284 285 284 281 281 283 287 286
106 102 104 101 99 95 91 89 88 81 73 65 59 56 56 60 51 31 23 36 47 32 9 18 354 318 329 358 360 342 323 314 314 303 297 293 292 292 289 286 285 283 281 279
98 97 104 104 99 93 90 92 92 88 76 65 60 58 49 43 31 11 351 351 14 304 276 278 289 300 324 351 351 324 314 312 313 311 299 292 291 289 286 287 286 282 277 272
97 102 106 108 106 97 88 83 82 76 68 47 45 37 27 26 358 314 309 323 330 319 296 272 269 284 319 335 325 310 307 306 305 304 302 300 296 290 289 291 292 287 288 288
102 100 96 95 96 95 89 82 77 67 46 28 13 342 303 270 268 278 290 318 315 297 288 275 269 284 302 297 305 298 305 308 309 308 307 304 305 303 303 303 300 298 298 297
86 86 85 82 78 82 84 75 63 29 349 338 323 312 303 284 277 279 288 290 270 258 264 268 265 269 273 286 302 296 304 307 309 310 313 312 309 308 309 307 303 300 293 284
68 67 69 70 66 66 65 52 24 332 315 315 292 258 260 272 277 279 286 290 284 277 273 275 268 265 272 285 298 300 306 310 312 312 316 317 315 313 312 310 309 305 298 291
58 59 58 54 46 19 349 338 316 305 304 300 286 272 275 284 289 290 276 257 268 277 275 275 273 274 281 287 291 299 306 310 312 314 315 316 315 312 311 313 312 309 304 300
43 39 28 7 332 302 310 311 302 295 289 282 277 275 273 273 269 265 282 285 283 283 277 270 280 296 307 303 298 304 311 314 317 317 314 313 314 316 318 317 314 309 307 310
339 322 306 300 311 316 305 296 296 292 285 283 281 277 271 283 302 293 258 288 304 296 281 288 299 313 324 324 320 323 322 322 323 321 323 325 326 326 327 327 325 327 331 341
302 300 303 310 307 291 280 289 307 315 318 320 320 321 316 275 259 291 308 323 336 339 326 324 335 343 354 353 350 341 334 331 332 333 335 333 330 329 331 333 337 344 354 3
310 303 295 287 280 287 304 326 331 324 334 342 335 333 340 348 358 1 356 355 356 358 359 358 3 8 10 4 355 348 347 346 346 345 340 335 332 334 339 347 353 1 4 7
343 343 342 344 337 335 339 338 325 318 319 328 319 319 327 344 359 3 5 360 360 9 13 11 10 12 6 5 6 6 4 358 353 350 346 344 345 347 350 354 359 3 6 11
Height
1491 1486 1486 1486 1484 1482 1488 1492 1499 1492 1486 1477 1472 1470 1470 1472 1474 1477 1480 1483 1486 1490 1493 1497 1500 1503 1506 1508 1510 1511 1513 1514 1515 1516 1517 1517 1517 1517 1517 1516 1516 1515 1514 1514
1489 1482 1482 1483 1479 1477 1478 1479 1482 1481 1480 1470 1467 1468 1470 1471 1473 1476 1478 1481 1484 1487 1490 1493 1497 1500 1502 1504 1506 1508 1509 1510 1512 1512 1513 1513 1513 1513 1513 1512 1512 1511 1510 1509
1498 1486 1485 1492 1480 1477 1479 1477 1477 1483 1480 1471 1470 1469 1470 1470 1472 1474 1476 1478 1482 1484 1487 1490 1493 1496 1498 1500 1502 1504 1505 1506 1507 1508 1509 1509 1509 1509 1509 1508 1508 1507 1506 1504
1500 1496 1504 1489 1473 1472 1477 1480 1476 1474 1472 1470 1469 1469 1470 1471 1472 1474 1475 1477 1479 1482 1484 1487 1490 1492 1495 1497 1498 1500 1501 1502 1503 1504 1505 1505 1505 1505 1504 1504 1503 1502 1501 1500
1503 1503 1495 1481 1475 1475 1479 1485 1481 1475 1472 1469 1468 1469 1471 1472 1473 1473 1474 1475 1477 1479 1481 1484 1486 1489 1491 1493 1494 1496 1497 1498 1499 1500 1500 1500 1500 1500 1500 1499 1498 1497 1496 1495
1500 1502 1502 1484 1473 1471 1475 1486 1481 1477 1474 1472 1470 1478 1477 1475 1474 1473 1473 1474 1476 1477 1479 1481 1483 1485 1487 1488 1490 1491 1492 1493 1495 1495 1496 1495 1495 1495 1495 1494 1493 1492 1490 1489
1499 1500 1490 1477 1472 1472 1487 1487 1478 1476 1474 1475 1476 1479 1477 1475 1473 1473 1473 1473 1474 1475 1476 1478 1480 1482 1483 1485 1486 1487 1489 1490 1490 1491 1491 1491 1491 1490 1490 1489 1487 1486 1485 1484
1497 1500 1494 1474 1473 1477 1480 1475 1475 1475 1474 1476 1477 1476 1476 1475 1473 1471 1471 1471 1473 1474 1474 1476 1477 1479 1480 1481 1482 1484 1485 1485 1486 1486 1486 1486 1486 1485 1484 1483 1482 1480 1479 1477
1486 1486 1477 1474 1473 1473 1474 1475 1476 1476 1476 1476 1477 1476 1475 1474 1473 1472 1471 1471 1472 1473 1474 1475 1476 1477 1478 1479 1480 1481 1481 1481 1481 1481 1481 1481 1480 1479 1478 1477 1476 1474 1473 1471
1480 1477 1475 1474 1472 1471 1473 1475 1477 1477 1477 1476 1476 1476 1475 1475 1474 1472 1472 1472 1472 1473 1473 1474 1475 1475 1476 1477 1477 1477 1477 1477 1477 1477 1476 1475 1474 1473 1472 1471 1469 1467 1466 1464
1476 1474 1474 1474 1473 1472 1474 1477 1477 1477 1477 1477 1477 1477 1476 1475 1475 1474 1474 1474 1473 1473 1473 1474 1474 1474 1475 1475 1474 1474 1474 1473 1473 1472 1471 1470 1469 1467 1465 1464 1463 1461 1459 1457
1470 1467 1469 1471 1471 1472 1475 1477 1478 1478 1479 1479 1479 1478 1478 1477 1476 1476 1476 1475 1475 1474 1474 1473 1473 1473 1473 1472 1472 1471 1470 1469 1468 1467 1465 1464 1462 1460 1458 1457 1455 1453 1451 1449
1458 1463 1466 1469 1471 1474 1476 1478 1479 1480 1480 1481 1481 1480 1479 1479 1478 1478 1477 1476 1476 1475 1474 1473 1472 1471 1470 1470 1468 1467 1466 1464 1463 1461 1460 1458 1456 1453 1449 1447 1446 1444 1442 1441
1458 1462 1467 1470 1472 1474 1477 1478 1480 1481 1482 1482 1482 1482 1481 1480 1480 1479 1479 1478 1477 1476 1474 1473 1471 1470 1468 1467 1466 1464 1462 1461 1459 1456 1454 1452 1449 1446 1443 1440 1437 1435 1434 1432
1462 1463 1467 1471 1473 1476 1478 1479 1480 1482 1483 1483 1483 1482 1482 1481 1481 1480 1479 1478 1477 1475 1473 1472 1470 1468 1467 1465 1463 1461 1459 1456 1454 1451 1448 1446 1443 1439 1436 1433 1430 1427 1425 1423
1465 1467 1470 1472 1475 1478 1479 1480 1481 1483 1483 1484 1483 1483 1483 1482 1481 1480 1479 1477 1475 1473 1472 1470 1468 1467 1465 1462 1460 1457 1455 1452 1449 1446 1443 1439 1436 1433 1429 1426 1423 1420 1418 1416
1468 1471 1472 1474 1477 1479 1480 1482 1483 1484 1484 1484 1483 1483 1482 1481 1480 1479 1477 1475 1474 1472 1470 1468 1466 1464 1462 1459 1457 1454 1451 1447 1444 1440 1437 1433 1429 1426 1423 1420 1417 1414 1411 1409
1472 1475 1476 1477 1478 1480 1481 1483 1483 1483 1483 1483 1483 1482 1480 1479 1478 1477 1475 1473 1472 1470 1468 1465 1463 1461 1459 1456 1453 1450 1446 1442 1438 1434 1430 1427 1423 1420 1416 1413 1410 1407 1404 1402
1475 1477 1479 1480 1481 1481 1482 1483 1483 1483 1483 1482 1481 1480 1479 1477 1476 1474 1473 1471 1468 1466 1464 1462 1460 1458 1455 1452 1449 1445 1441 1437 1433 1429 1425 1421 1418 1414 1411 1407 1404 1401 1398 1395
1478 1479 1481 1481 1482 1482 1482 1482 1482 1482 1481 1480 1479 1477 1476 1475 1473 1471 1469 1467 1465 1463 1460 1458 1456 1453 1450 1447 1444 1440 1437 1432 1428 1424 1420 1416 1412 1409 1405 1402 1398 1395 1392 1390
1480 1481 1482 1482 1482 1482 1482 1481 1481 1480 1478 1477 1476 1474 1473 1471 1470 1467 1465 1463 1461 1459 1456 1454 1451 1449 1446 1443 1439 1436 1432 1428 1424 1420 1416 1412 1408 1404 1400 1397 1393 1390 1387 1384
1482 1482 1482 1482 1481 1481 1480 1479 1478 1477 1475 1474 1472 1471 1469 1467 1465 1463 1461 1459 1456 1454 1452 1449 1447 1444 1441 1438 1434 1431 1427 1423 1419 1415 1411 1407 1403 1399 1396 1392 1389 1385 1382 1380
1482 1482 1481 1480 1480 1479 1477 1476 1475 1473 1472 1470 1468 1467 1465 1463 1461 1459 1456 1454 1452 1450 1447 1444 1442 1439 1436 1432 1429 1425 1422 1418 1414 1411 1407 1403 1399 1395 1392 1388 1384 1381 1378 1376
1481 1480 1479 1478 1477 1475 1474 1473 1471 1470 1468 1466 1464 1463 1461 1459 1457 1455 1452 1450 1447 1445 1442 1439 1436 1433 1430 1427 1423 1420 1417 1413 1410 1406 1402 1398 1395 1392 1388 1385 1381 1377 1375 1373
1479 1478 1476 1475 1473 1472 1470 1469 1467 1466 1464 1462 1460 1459 1457 1455 1453 1450 1448 1445 1443 1440 1437 1434 1431 1428 1425 1422 1418 1415 1412 1409 1405 1402 1398 1394 1391 1388 1385 1381 1378 1375 1373 1371
1476 1475 1473 1472 1470 1469 1467 1466 1464 1462 1461 1459 1457 1456 1454 1451 1449 1446 1444 1441 1438 1435 1432 1429 1426 1423 1420 1417 1414 1411 1407 1404 1401 1397 1394 1391 1387 1385 1382 1379 1376 1374 1372 1370
1473 1472 1470 1469 1467 1466 1464 1463 1461 1459 1457 1455 1453 1452 1449 1447 1445 1442 1439 1436 1434 1431 1428 1425 1422 1420 1417 1414 1410 1407 1404 1401 1398 1395 1391 1388 1385 1382 1380 1377 1375 1373 1371 1370